Date String (YYYY-MM-DD hh:mm:ss) UTC,Instrument flags,Ambient pressure (hPa),Sample flow (lpm),Bypass flow (lpm),Sample temperature (°C),Ambient temperature (°C),ASC tube jacket temperature (°C),LED temperature (°C),Box temperature (°C),Sample RH (%),Span deviation,Mass concentration (μg/m³),Mass concentration (μg/m³),Mass concentration (μg/m³)
DateTimeUTC,F1_M11,P_M11,Q1_M11,Q2_M11,T1_M11,T2_M11,T3_M11,T4_M11,T5_M11,U1_M11,ZSPAN_M11,X0_M11,X2_M11,X1_M11
2022-09-05 14:00:00,,0827.9,5.01,0.00,30.2,29.1,00.0,38.9,32.0,16.3,0000.0,0015.64,0007.86,0006.63
2022-09-05 14:01:00,,0827.9,4.98,0.00,30.2,29.1,00.0,38.9,32.1,16.2,0000.0,0015.15,0007.78,0006.63
2022-09-05 14:02:00,,0827.9,5.00,0.00,30.2,29.2,00.0,38.9,32.1,16.3,0000.0,0015.70,0007.80,0006.62
2022-09-05 14:03:00,,0828.0,5.01,0.00,30.3,29.2,00.0,39.0,32.1,16.3,0000.0,0015.01,0007.76,0006.62
2022-09-05 14:04:00,,0827.9,4.98,0.00,30.3,28.9,00.0,39.0,32.2,16.1,0000.0,0014.96,0007.74,0006.62
2022-09-05 14:05:00,,0827.9,5.01,0.00,30.3,27.6,00.0,39.0,32.0,16.1,0000.0,0015.02,0007.77,0006.64
2022-09-05 14:06:00,,0827.9,5.02,0.00,30.2,27.0,00.0,38.9,32.0,16.2,0000.0,0014.50,0007.76,0006.65
2022-09-05 14:07:00,,0828.0,4.99,0.00,30.2,27.3,00.0,38.9,31.9,16.2,0000.0,0014.18,0007.72,0006.67
2022-09-05 14:08:00,,0828.0,5.00,0.00,30.1,27.5,00.0,38.9,31.8,16.3,0000.0,0014.10,0007.69,0006.68
2022-09-05 14:09:00,,0827.9,5.00,0.00,30.1,27.9,00.0,38.8,31.8,16.4,0000.0,0014.05,0007.68,0006.70
2022-09-05 14:10:00,,0828.0,5.00,0.00,30.1,28.1,00.0,38.8,31.8,16.6,0000.0,0013.44,0007.66,0006.70
2022-09-05 14:11:00,,0828.0,5.00,0.00,30.1,28.3,00.0,38.8,31.9,16.5,0000.0,0013.96,0007.69,0006.69
2022-09-05 14:12:00,,0828.1,5.00,0.00,30.1,28.5,00.0,38.8,31.9,16.6,0000.0,0014.51,0007.74,0006.69
2022-09-05 14:13:00,,0828.1,5.01,0.00,30.1,28.7,00.0,38.8,31.9,16.5,0000.0,0014.07,0007.78,0006.70
2022-09-05 14:14:00,,0828.2,4.99,0.00,30.1,28.8,00.0,38.8,31.9,16.7,0000.0,0014.49,0007.85,0006.70
2022-09-05 14:15:00,,0828.1,5.00,0.00,30.1,28.8,00.0,38.8,32.0,17.2,0000.0,0014.99,0007.90,0006.70
2022-09-05 14:16:00,,0828.2,5.00,0.00,30.1,28.9,00.0,38.9,32.0,17.7,0000.0,0014.85,0007.93,0006.67
2022-09-05 14:17:00,,0828.1,4.99,0.00,30.2,29.0,00.0,38.9,32.0,18.1,0000.0,0015.04,0007.95,0006.64
2022-09-05 14:18:00,,0828.2,4.99,0.00,30.2,29.1,00.0,38.9,32.1,18.0,0000.0,0015.55,0007.95,0006.63
2022-09-05 14:19:00,,0828.2,5.01,0.00,30.2,29.2,00.0,38.9,32.1,18.1,0000.0,0016.82,0007.95,0006.61
2022-09-05 14:20:00,,0828.2,4.98,0.00,30.3,28.9,00.0,39.0,32.1,17.9,0000.0,0017.77,0007.96,0006.59
2022-09-05 14:21:00,,0828.1,5.00,0.00,30.2,27.6,00.0,38.9,32.0,18.1,0000.0,0018.30,0007.95,0006.59
2022-09-05 14:22:00,,0828.3,5.00,0.00,30.2,27.1,00.0,38.9,31.9,16.9,0000.0,0018.11,0007.95,0006.58
2022-09-05 14:23:00,,0828.2,5.00,0.00,30.1,27.3,00.0,38.9,31.9,17.0,0000.0,0018.26,0007.97,0006.57
2022-09-05 14:24:00,,0828.2,5.00,0.00,30.1,27.6,00.0,38.8,31.8,18.1,0000.0,0018.58,0007.97,0006.54
2022-09-05 14:25:00,,0828.2,4.99,0.00,30.1,27.9,00.0,38.8,31.7,18.0,0000.0,0018.42,0007.92,0006.50
2022-09-05 14:26:00,,0828.3,5.01,0.00,30.0,28.1,00.0,38.8,31.8,17.1,0000.0,0017.98,0007.87,0006.48
2022-09-05 14:27:00,,0828.3,5.00,0.00,30.1,28.3,00.0,38.8,31.8,16.8,0000.0,0017.60,0007.75,0006.47
2022-09-05 14:28:00,,0828.2,5.00,0.00,30.1,28.5,00.0,38.8,31.9,16.6,0000.0,0018.01,0007.73,0006.45
2022-09-05 14:29:00,,0828.2,5.00,0.00,30.1,28.7,00.0,38.8,31.9,16.7,0000.0,0018.33,0007.70,0006.44
2022-09-05 14:30:00,,0828.2,4.99,0.00,30.1,28.8,00.0,38.8,31.9,17.5,0000.0,0017.49,0007.67,0006.41
2022-09-05 14:31:00,,0828.3,5.01,0.00,30.1,28.9,00.0,38.8,32.0,19.0,0000.0,0017.22,0007.68,0006.39
2022-09-05 14:32:00,,0828.3,5.00,0.00,30.1,28.9,00.0,38.9,32.0,19.3,0000.0,0017.72,0007.67,0006.36
2022-09-05 14:33:00,,0828.3,5.01,0.00,30.2,29.0,00.0,38.9,32.0,18.7,0000.0,0017.59,0007.64,0006.33
2022-09-05 14:34:00,,0828.3,4.98,0.00,30.2,28.6,00.0,38.9,32.1,17.8,0000.0,0017.78,0007.62,0006.30
2022-09-05 14:35:00,,0828.3,5.01,0.00,30.2,27.4,00.0,38.9,31.9,17.5,0000.0,0017.58,0007.59,0006.29
2022-09-05 14:36:00,,0828.3,5.00,0.00,30.1,27.1,00.0,38.8,31.9,17.4,0000.0,0018.25,0007.59,0006.31
2022-09-05 14:37:00,,0828.4,5.00,0.00,30.1,27.3,00.0,38.8,31.8,17.3,0000.0,0019.14,0007.63,0006.31
2022-09-05 14:38:00,,0828.4,4.99,0.00,30.0,27.6,00.0,38.8,31.8,17.2,0000.0,0020.78,0007.66,0006.30
2022-09-05 14:39:00,,0828.4,5.01,0.00,30.0,27.9,00.0,38.8,31.8,17.3,0000.0,0020.73,0007.61,0006.29
2022-09-05 14:40:00,,0828.4,5.00,0.00,30.0,28.1,00.0,38.8,31.7,17.4,0000.0,0020.98,0007.64,0006.29
2022-09-05 14:41:00,,0828.5,5.00,0.00,30.0,28.4,00.0,38.7,31.8,17.5,0000.0,0021.12,0007.66,0006.29
2022-09-05 14:42:00,,0828.5,5.00,0.00,30.0,28.6,00.0,38.8,31.8,17.7,0000.0,0020.78,0007.63,0006.29
2022-09-05 14:43:00,,0828.5,5.01,0.00,30.0,28.7,00.0,38.8,31.9,18.7,0000.0,0019.96,0007.63,0006.28
2022-09-05 14:44:00,,0828.5,5.00,0.00,30.1,28.8,00.0,38.8,31.9,18.6,0000.0,0020.45,0007.62,0006.27
2022-09-05 14:45:00,,0828.5,4.99,0.00,30.1,28.9,00.0,38.8,32.0,18.4,0000.0,0020.42,0007.62,0006.27
2022-09-05 14:46:00,,0828.5,5.01,0.00,30.1,29.0,00.0,38.8,32.0,18.5,0000.0,0020.44,0007.61,0006.26
2022-09-05 14:47:00,,0828.6,5.01,0.00,30.1,29.1,00.0,38.8,32.0,18.7,0000.0,0020.06,0007.59,0006.25
2022-09-05 14:48:00,,0828.5,4.98,0.00,30.2,28.6,00.0,38.8,32.0,18.8,0000.0,0019.54,0007.58,0006.25
2022-09-05 14:49:00,,0828.6,5.01,0.00,30.1,27.4,00.0,38.8,31.9,18.6,0000.0,0018.29,0007.61,0006.25
2022-09-05 14:50:00,,0828.5,5.00,0.00,30.1,27.2,00.0,38.8,31.9,18.6,0000.0,0018.75,0007.71,0006.27
2022-09-05 14:51:00,,0828.5,5.00,0.00,30.0,27.4,00.0,38.8,31.8,18.5,0000.0,0018.41,0007.72,0006.27
2022-09-05 14:52:00,,0828.5,4.99,0.00,30.0,27.7,00.0,38.7,31.7,18.7,0000.0,0018.87,0007.78,0006.29
2022-09-05 14:53:00,,0828.5,5.01,0.00,30.0,28.0,00.0,38.7,31.8,18.9,0000.0,0019.34,0007.89,0006.31
2022-09-05 14:54:00,,0828.5,5.00,0.00,30.0,28.3,00.0,38.7,31.8,18.7,0000.0,0019.23,0007.89,0006.32
2022-09-05 14:55:00,,0828.5,5.01,0.00,30.0,28.4,00.0,38.7,31.8,18.6,0000.0,0018.73,0007.90,0006.33
2022-09-05 14:56:00,,0828.4,5.00,0.00,30.0,28.6,00.0,38.7,31.8,18.7,0000.0,0017.93,0007.89,0006.34
2022-09-05 14:57:00,,0828.7,5.00,0.00,30.0,28.7,00.0,38.7,31.9,18.8,0000.0,0018.93,0007.95,0006.37
2022-09-05 14:58:00,,0828.9,4.98,0.00,30.1,28.8,00.0,38.8,31.9,18.9,0000.0,0019.02,0007.94,0006.40
2022-09-05 14:59:00,,0829.0,5.00,0.00,30.1,29.0,00.0,38.8,32.0,18.9,0000.0,0018.35,0007.93,0006.40
